sat.trackr.live / text

‹ back to catalog

STARLINK-36483

NORAD 67330 · 2026-002AB

PAYLOAD ACTIVE UNKNOWN

§ Identity

Operator
Country
US
Launch date
2026-01-04
Launch site
AFETR
Launch vehicle
Mass (kg)
RCS (m²)

Purposes: comms

External: N2YO · Heavens-Above · Gunter

§ Orbital elements

Epoch: 2026-05-24T17:16:42.382272Z

Period
94.27 min
Inclination
43.0002°
Eccentricity
0.0001571
Mean motion
15.27568485 rev/d
Perigee alt
482.0 km
Apogee alt
484.2 km
Semi-major
6,861.2 km
B*
6.3441e-4
RAAN
256.1574°
Arg perigee
273.9963°
Mean anomaly
86.0709°
Rev number
2,286

§ Raw data

STARLINK-364831 67330U 26002AB  26144.71993498  .00017230  00000+0  63441-3 0  99992 67330  43.0002 256.1574 0001571 273.9963  86.0709 15.27568485 22862

JSON: /api/v1/satellites/67330 · /tle

For live sub-satellite position, see the globe view (requires WebGL).

§ Visibility from observer

Set your observer location to see the next 7 days of passes ≥ 10°. The values pass through the URL so the page stays shareable.

No JS? Fill the form by hand. The geolocation button needs JavaScript.